Location: ?????? ??????
(44.3742°N, 135.2221°E)
Time: 18:11:42
(UTC+00:00)

Cosmos 1328 Rocket - Pass Details

Date: 19 May 2025
Orbit: 596 x 618 km, 82.5° (Epoch: 21 June)

Event Time Altitude Azimuth Distance (km) Brightness Sun altitude
Exits shadow 15:18:45 64° 49° (NE) 670 3.8 -25.5°
Drops below altitude 10° 15:22:34 10° 13° (NNE) 1,957 7.2 -25.4°
Sets 15:24:48 0° 11° (N) 2,868 8.4 -25.4°
